Location: ???
(35.5616°N, 139.7977°E)
Time: 02:59:20
(UTC+00:00)

Centaur D AC-28 - Pass Details

Date: 17 November 2025
Orbit: 638 x 36401 km, 28.5° (Epoch: 09 December)

Event Time Altitude Azimuth Distance (km) Brightness Sun altitude
Exits shadow 20:32:15 - 275° (W) 8,176 6.6 -9.8°
Reaches altitude 10° 20:33:44 10° 274° (W) 7,595 6.4 -9.5°
Maximum altitude 20:48:14 37° 212° (SSW) 1,882 3.9 -6.7°
Drops below altitude 10° 20:52:35 10° 142° (SE) 2,327 5.5 -5.9°
Sets 20:54:19 0° 131° (SE) 3,019 6.6 -5.5°
